Location: Usti nad Orlici
(49.9830°N, 16.4000°E)
Time: 03:02:48
(UTC+02:00)

ISS - Pass Details

Date: 31 March 2019
Orbit: 411 x 421 km, 51.6° (Epoch: 14 October)

Event Time Altitude Azimuth Distance (km) Brightness Sun altitude
Rises 22:25:09 0° 287° (WNW) 2,351 1.0 -26.5°
Reaches altitude 10° 22:27:20 10° 279° (W) 1,484 -0.3 -26.7°
Enters shadow 22:28:10 16° 272° (W) 1,175 -1.0 -26.8°
